作者enix09 (平)
看板PlayBaseball
标题[请益] 投球姿势
时间Thu Dec 17 00:47:45 2009
小弟最近很想好好的练自己的投球姿势
但是都没什麽去系垒或者认识校队同学也就只能慢慢摸索
所以特别拍一小段投球动作 希望大家可以多给点意见
看还有什麽地方需要再加强的 (应该不会砍掉重练吧Q__Q)
https://www.youtube.com/watch?v=xhjaUY86yn8
目前去可信度很高的测球速道怎麽丢MAX就是 105~110 km/hr
也想顺便问一下怎麽在增加球速呢??
控球其实我觉得挺OK的 所以才想在变快...
以上 请鞭小力点 谢谢
--
※ 发信站: 批踢踢实业坊(ptt.cc)
◆ From: 140.114.210.73
1F:推 EEERRIICC:114棒球爱好者推.... 12/17 00:55
2F:推 KK650:这样有110 的话 改了应该能破120 12/17 01:01
3F:推 nkmax24:我也想变快~~QQ 12/17 01:03
4F:推 kf282558:抱歉今天DEMO太久 也忘记打电话通知你 ˊˋ 12/17 01:21
5F:→ enix09:楼上 NO MIND~ 12/17 01:22
6F:推 adult1219:100以上? 哪测的 有吗?= = 感觉没用到什麽转动的腰力 12/17 02:39
7F:推 ttogc:推热血~科科 12/17 02:47
8F:推 st87176155:我相信有 因为我有朋友投球动作很像他 而且球速也超过 12/17 08:35
9F:→ st87176155:110 12/17 08:35
10F:推 tonyone:不可能100以上= = 12/17 09:25
11F:→ yangsj:看起来顶多90~100而以.. 12/17 10:57
12F:→ lrh18:抬肘挥臂压腕感觉都做得没到位 能有105up真是奇才... 12/17 11:15
13F:→ lucasfu:感觉手有点僵硬耶.. 12/17 11:30
14F:→ angusyu:奇才 12/17 12:07
15F:→ ARod622:哪侧的呀 真神奇 12/17 12:52
16F:推 benothing:跨步太大 力量可能会被分散掉 小个一个到一个半脚掌看看 12/17 13:10
17F:推 adult1219:跨步还好吧 主要是後脚没用力加上身体没带动手臂 12/17 13:43
18F:推 kevabc1:枪迷推 12/17 13:46
19F:推 nkmax24:竹北大联盟??? 12/17 13:56
是的 我是去那边测的
我跟我同学去都几次都觉得那个还挺不欢乐的 跟我之前去台中大鲁阁比差很多的说
那边(旧馆)有一个就是只有测速的地方 不是那种要打板子的那种
影片中就只有把平常动作丢出来也没特别去催
20F:推 allen65535:你可以去跟物理系一起练 XD 12/17 13:58
21F:推 p4s800:林琨瀚教练上课的时候去跟着打也可以阿 12/17 14:06
22F:推 kf282558:清大棒球场晚上可以开灯 真好~ 12/17 14:48
23F:→ kf282558:跟原PO丢过 的确有100以上 我也是小嫩嫩 12/17 14:49
24F:→ kf282558:所以也不知道有甚麽比较好的建议 XD 12/17 14:50
25F:→ kf282558:我觉得抬腿跟重心移转再改一下比较好 12/17 14:51
26F:推 p3013220132:这样不可能105~110吧- -" 12/17 16:10
27F:→ zwwz:除了跨步问题 我认为原PO 可先试试上半身投球 12/17 17:07
28F:→ zwwz:看你丢球姿势 你是不是不常拉远投球? 手臂施力不协调 12/17 17:09
29F:→ zwwz:能110真的不简单 练一下上120很简单 12/17 17:09
30F:推 ttogc:练武奇才~多看比赛转播,某天睡醒时你会发现,你开窍了! 12/17 18:39
还挺常看cpbl的说...
31F:推 p3013220132:嗯..姿势正确很重要><" 有贤拜跟我说过姿势正确轻轻 12/17 19:00
32F:→ p3013220132:丢可以上100...不知道此话的可信度ˊˋ" 12/17 19:01
33F:推 yamcomtw:还是要有一定的协调性才行啦.... @.@> 12/17 19:11
34F:→ lsz:原po动作很特别,请问实战对打者的压制力如何?好奇一问~ 12/17 19:17
其实没有特别去实战耶 但是跟朋友玩的时候挺常叫我去喂球 = "=
35F:推 gs1:应该没有110吧 100有可能 12/17 19:56
36F:推 zseal:说不定上帝舔猴子的手时 口水滴到原PO手上 12/17 23:24
※ 编辑: enix09 来自: 140.114.210.73 (12/17 23:56)
37F:推 Resco:甩臂蛮快的 但不太协调 感觉拉开右臂太僵硬 12/18 02:19
38F:推 s9623091:某楼跟原PO丢过 如何知道100以上呢? 有带测速枪吗? 12/18 18:04
39F:推 veriloger:我觉得其他楼更屌 根本没实际看过就知道球速了 12/18 23:39
40F:→ yangsj:以後有提到自己球速的还是附上证据好了,避免大家舌战.. 12/19 00:23
41F:推 lsz:12/19(六)在静宜的鸟笼帮大家测速~~欢迎邻近球友来参加~ 12/19 00:50
42F:→ lsz:请找背号#46~~ ^_^ 12/19 00:50
43F:推 lsz:忘了说是早上九点,大概打到中午11点左右会走~~ 12/19 00:54
44F:推 mingdao:快不是重点 12/19 07:20
45F:→ Qoofate:这样丢 用球数一多 手应该蛮痛的 12/20 23:27
46F:推 tigernaxo:感觉他跨步虽大 但是力量也有吃到 100up合理吧 12/29 21:12